This is the latest recevied weather packets stored in our database for station/object KB2SKP. If no packets are shown the sender has not sent any weather packets the latest 10 day(s).
| Time | Temp. | Humidity | Pressure | Rain* | Wind** | Luminosity | Snow |
|---|---|---|---|---|---|---|---|
| 1778134187 | 17.22° C | 96% | 1005.2 hPa | 0 mm | - | 0 W/m² | - |
| 1778133883 | 17.22° C | 96% | 1005.7 hPa | 0.51 mm | - | 0 W/m² | - |
| 1778133580 | 17.22° C | 96% | 1005.6 hPa | 0.51 mm | - | 0 W/m² | - |
| 1778133275 | 17.22° C | 96% | 1005.6 hPa | 0 mm | - | 0 W/m² | - |
| 1778132972 | 17.22° C | 96% | 1005.6 hPa | 0 mm | - | 0 W/m² | - |
| 1778132668 | 17.78° C | 96% | 1005.8 hPa | 0 mm | - | 0 W/m² | - |
| 1778132366 | 17.78° C | 96% | 1006 hPa | 0.51 mm | - | 0 W/m² | - |
| 1778132062 | 17.78° C | 96% | 1006 hPa | 1.78 mm | - | 0 W/m² | - |
| 1778131761 | 17.22° C | 96% | 1005.8 hPa | 2.29 mm | - | 0 W/m² | - |
| 1778131458 | 17.22° C | 95% | 1005.8 hPa | 1.27 mm | - | 0 W/m² | - |
| 1778131149 | 17.22° C | 95% | 1005.8 hPa | 0 mm | - | 0 W/m² | - |
| 1778130847 | 17.22° C | 95% | 1006.1 hPa | 0 mm | - | 0 W/m² | - |
| 1778130544 | 17.22° C | 94% | 1006 hPa | 0 mm | - | 0 W/m² | - |
| 1778130241 | 17.22° C | 94% | 1005.8 hPa | 0 mm | - | 0 W/m² | - |
| 1778129937 | 17.22° C | 94% | 1005.8 hPa | 0 mm | - | 0 W/m² | - |
| 1778129634 | 17.22° C | 94% | 1005.7 hPa | 0 mm | - | 0 W/m² | - |
| 1778129331 | 17.22° C | 94% | 1005.7 hPa | 0 mm | - | 0 W/m² | - |
| 1778129028 | 17.22° C | 94% | 1005.8 hPa | 0 mm | - | 0 W/m² | - |
| 1778128723 | 17.22° C | 94% | 1006 hPa | 0 mm | - | 0 W/m² | - |
| 1778128420 | 17.22° C | 94% | 1005.7 hPa | 0 mm | - | 0 W/m² | - |
| 1778128117 | 17.22° C | 94% | 1005.5 hPa | 0 mm | - | 0 W/m² | - |
| 1778127812 | 17.22° C | 94% | 1005.6 hPa | 0 mm | - | 0 W/m² | - |
| 1778127510 | 17.22° C | 94% | 1006 hPa | 0 mm | - | 0 W/m² | - |
| 1778127206 | 17.22° C | 94% | 1005.6 hPa | 0 mm | - | 0 W/m² | - |
| 1778126903 | 17.22° C | 93% | 1005.8 hPa | 0 mm | - | 0 W/m² | - |
* Rain latest hour (hover to see other rain measurements)
** Current wind speed in m/s (hover to see current wind gust speed)